When you browse on this site, cookies collect data to enhance your experience and personalize the content and advertising you see.
Visit our Privacy Policy to learn more. By continuing to use the site, you agree to this use of cookies and data.

Tiempo cada hora Punakha

Hoy, 18 Septiembre, Viernes

Tiempo Temperatura Precipitaciones Viento Presión Humedad
00:00 +17°C° 0 mm 0 mps 585 mmHg 94%
01:00 +17°C° 0 mm 0 mps 585 mmHg 94%
02:00 +16°C° 0 mm 0 mps 585 mmHg 94%
03:00 +16°C° 0 mm 0 mps 584 mmHg 94%
04:00 +16°C° 0 mm 0 mps 584 mmHg 93%
05:00 +16°C° 0 mm 0 mps 585 mmHg 92%
06:00 +17°C° 0 mm 0 mps 585 mmHg 95%
07:00 +21°C° 0.1 mm 1 mps 586 mmHg 90%
08:00 +22°C° 0.1 mm 1 mps 587 mmHg 85%
09:00 +24°C° 0.1 mm 1 mps 587 mmHg 80%
10:00 +24°C° 0.4 mm 2 mps 587 mmHg 78%
11:00 +25°C° 0.4 mm 2 mps 587 mmHg 77%
12:00 +26°C° 0.4 mm 2 mps 587 mmHg 76%
13:00 +25°C° 0.8 mm 2 mps 586 mmHg 78%
14:00 +25°C° 0.8 mm 2 mps 585 mmHg 79%
15:00 +25°C° 0.8 mm 2 mps 584 mmHg 81%
16:00 +24°C° 0.8 mm 1 mps 584 mmHg 86%
17:00 +22°C° 0.8 mm 1 mps 584 mmHg 91%
18:00 +19°C° 0.8 mm 0 mps 583 mmHg 97%
19:00 +19°C° 0.2 mm 0 mps 584 mmHg 96%
20:00 +18°C° 0.2 mm 0 mps 584 mmHg 96%
21:00 +18°C° 0.2 mm 0 mps 585 mmHg 95%
22:00 +18°C° 0.1 mm 0 mps 585 mmHg 95%
23:00 +17°C° 0.1 mm 0 mps 585 mmHg 95%

Mañana, 19 Septiembre, Sábado

Tiempo Temperatura Precipitaciones Viento Presión Humedad
00:00 +17°C° 0.1 mm 0 mps 585 mmHg 94%
01:00 +17°C° 0.1 mm 0 mps 585 mmHg 94%
02:00 +19°C° 0.1 mm 1 mps 584 mmHg 93%
03:00 +19°C° 0.1 mm 1 mps 584 mmHg 93%
04:00 +19°C° 0.1 mm 1 mps 584 mmHg 92%
05:00 +18°C° 0.1 mm 1 mps 584 mmHg 91%
06:00 +18°C° 0.1 mm 1 mps 584 mmHg 90%
07:00 +20°C° 0.1 mm 1 mps 586 mmHg 84%
08:00 +23°C° 0.1 mm 1 mps 587 mmHg 78%
09:00 +25°C° 0.1 mm 1 mps 588 mmHg 73%
10:00 +26°C° 0.4 mm 2 mps 588 mmHg 68%
11:00 +27°C° 0.4 mm 2 mps 588 mmHg 62%
12:00 +28°C° 0.4 mm 2 mps 588 mmHg 57%
13:00 +28°C° 0.4 mm 2 mps 587 mmHg 59%
14:00 +28°C° 0.4 mm 2 mps 586 mmHg 62%
15:00 +27°C° 0.4 mm 3 mps 585 mmHg 64%
16:00 +25°C° 0.5 mm 2 mps 585 mmHg 74%
17:00 +23°C° 0.5 mm 1 mps 584 mmHg 84%
18:00 +21°C° 0.5 mm 1 mps 583 mmHg 94%
19:00 +21°C° 0.2 mm 1 mps 584 mmHg 94%
20:00 +20°C° 0.2 mm 1 mps 584 mmHg 94%
21:00 +20°C° 0.2 mm 1 mps 584 mmHg 94%
22:00 +20°C° 0.1 mm 1 mps 585 mmHg 93%
23:00 +20°C° 0.1 mm 1 mps 585 mmHg 92%

Pasado mañana, 20 Septiembre, Domingo

Tiempo Temperatura Precipitaciones Viento Presión Humedad
00:00 +20°C° 0.1 mm 1 mps 585 mmHg 90%
01:00 +19°C° 0.1 mm 1 mps 585 mmHg 90%
02:00 +19°C° 0.1 mm 1 mps 584 mmHg 89%
03:00 +19°C° 0.1 mm 1 mps 584 mmHg 88%
04:00 +19°C° 0 mm 1 mps 584 mmHg 88%
05:00 +18°C° 0 mm 1 mps 584 mmHg 87%
06:00 +18°C° 0 mm 1 mps 584 mmHg 86%
07:00 +21°C° 0 mm 1 mps 586 mmHg 79%
08:00 +23°C° 0 mm 1 mps 587 mmHg 71%
09:00 +26°C° 0 mm 1 mps 588 mmHg 64%
10:00 +26°C° 0.3 mm 2 mps 588 mmHg 62%
11:00 +27°C° 0.3 mm 2 mps 588 mmHg 60%
12:00 +28°C° 0.3 mm 2 mps 587 mmHg 58%
13:00 +28°C° 0.5 mm 2 mps 587 mmHg 60%
14:00 +27°C° 0.5 mm 2 mps 586 mmHg 62%
15:00 +27°C° 0.5 mm 2 mps 585 mmHg 64%
16:00 +25°C° 0.8 mm 2 mps 584 mmHg 74%
17:00 +23°C° 0.8 mm 1 mps 583 mmHg 83%
18:00 +19°C° 0.8 mm 0 mps 583 mmHg 93%
19:00 +19°C° 0.3 mm 0 mps 583 mmHg 93%
20:00 +19°C° 0.3 mm 0 mps 584 mmHg 93%
21:00 +18°C° 0.3 mm 0 mps 584 mmHg 94%
22:00 +18°C° 0.2 mm 0 mps 584 mmHg 94%
23:00 +20°C° 0.2 mm 1 mps 584 mmHg 94%

21 Septiembre, Lunes

Tiempo Temperatura Precipitaciones Viento Presión Humedad
00:00 +19°C° 0.2 mm 1 mps 584 mmHg 94%
01:00 +19°C° 0.2 mm 1 mps 584 mmHg 94%
02:00 +19°C° 0.2 mm 1 mps 584 mmHg 93%
03:00 +19°C° 0.2 mm 1 mps 584 mmHg 92%
04:00 +19°C° 0.1 mm 1 mps 584 mmHg 91%
05:00 +19°C° 0.1 mm 1 mps 584 mmHg 90%
06:00 +18°C° 0.1 mm 1 mps 585 mmHg 89%
07:00 +20°C° 0 mm 1 mps 586 mmHg 84%
08:00 +22°C° 0 mm 1 mps 587 mmHg 78%
09:00 +24°C° 0 mm 1 mps 588 mmHg 72%
10:00 +25°C° 0.3 mm 2 mps 587 mmHg 69%
11:00 +26°C° 0.3 mm 2 mps 587 mmHg 65%
12:00 +27°C° 0.3 mm 3 mps 587 mmHg 61%
13:00 +27°C° 0.7 mm 3 mps 586 mmHg 65%
14:00 +26°C° 0.7 mm 2 mps 586 mmHg 68%
15:00 +26°C° 0.7 mm 2 mps 585 mmHg 72%
16:00 +24°C° 0.9 mm 2 mps 584 mmHg 80%
17:00 +22°C° 0.9 mm 1 mps 584 mmHg 87%
18:00 +21°C° 0.9 mm 1 mps 583 mmHg 95%
19:00 +20°C° 0.5 mm 1 mps 584 mmHg 95%
20:00 +18°C° 0.5 mm 0 mps 584 mmHg 95%
21:00 +18°C° 0.5 mm 0 mps 585 mmHg 95%
22:00 +18°C° 0.5 mm 0 mps 585 mmHg 95%
23:00 +18°C° 0.5 mm 0 mps 585 mmHg 96%

22 Septiembre, Martes

Tiempo Temperatura Precipitaciones Viento Presión Humedad
00:00 +17°C° 0.5 mm 0 mps 585 mmHg 96%
01:00 +17°C° 0.8 mm 0 mps 585 mmHg 96%
02:00 +17°C° 0.8 mm 0 mps 585 mmHg 96%
03:00 +17°C° 0.8 mm 0 mps 584 mmHg 96%
04:00 +17°C° 1.3 mm 0 mps 584 mmHg 96%
05:00 +17°C° 1.3 mm 0 mps 585 mmHg 96%
06:00 +17°C° 1.3 mm 0 mps 585 mmHg 96%
07:00 +17°C° 0.6 mm 0 mps 585 mmHg 96%
08:00 +18°C° 0.6 mm 0 mps 586 mmHg 95%
09:00 +18°C° 0.6 mm 0 mps 586 mmHg 95%
10:00 +20°C° 1 mm 1 mps 586 mmHg 96%
11:00 +20°C° 1 mm 1 mps 585 mmHg 96%
12:00 +20°C° 1 mm 1 mps 585 mmHg 97%
13:00 +20°C° 2 mm 1 mps 584 mmHg 97%
14:00 +20°C° 2 mm 1 mps 584 mmHg 97%
15:00 +17°C° 2 mm 0 mps 584 mmHg 97%
16:00 +17°C° 0.3 mm 0 mps 584 mmHg 97%
17:00 +17°C° 0.3 mm 0 mps 584 mmHg 97%
18:00 +17°C° 0.3 mm 0 mps 584 mmHg 97%
19:00 +17°C° 0.1 mm 0 mps 585 mmHg 96%
20:00 +17°C° 0.1 mm 0 mps 585 mmHg 96%
21:00 +17°C° 0.1 mm 0 mps 585 mmHg 96%
22:00 +17°C° 0 mm 0 mps 585 mmHg 95%
23:00 +17°C° 0 mm 0 mps 585 mmHg 94%

23 Septiembre, Miércoles

Tiempo Temperatura Precipitaciones Viento Presión Humedad
00:00 +16°C° 0 mm 0 mps 585 mmHg 93%
01:00 +16°C° 0 mm 0 mps 584 mmHg 93%
02:00 +16°C° 0 mm 0 mps 584 mmHg 92%
03:00 +16°C° 0 mm 0 mps 583 mmHg 92%
04:00 +16°C° 0 mm 0 mps 583 mmHg 91%
05:00 +16°C° 0 mm 0 mps 583 mmHg 91%
06:00 +16°C° 0 mm 0 mps 583 mmHg 90%
07:00 +18°C° 0.4 mm 1 mps 584 mmHg 91%
08:00 +19°C° 0.4 mm 1 mps 585 mmHg 92%
09:00 +20°C° 0.4 mm 1 mps 585 mmHg 93%
10:00 +20°C° 0.7 mm 1 mps 585 mmHg 92%
11:00 +20°C° 0.7 mm 1 mps 585 mmHg 92%
12:00 +21°C° 0.7 mm 1 mps 585 mmHg 91%
13:00 +21°C° 0.2 mm 1 mps 585 mmHg 88%
14:00 +21°C° 0.2 mm 2 mps 584 mmHg 85%
15:00 +21°C° 0.2 mm 2 mps 584 mmHg 82%
16:00 +21°C° 0.4 mm 1 mps 584 mmHg 87%
17:00 +20°C° 0.4 mm 1 mps 584 mmHg 93%
18:00 +19°C° 0.4 mm 1 mps 583 mmHg 98%
19:00 +19°C° 0.2 mm 1 mps 583 mmHg 97%
20:00 +17°C° 0.2 mm 0 mps 584 mmHg 96%
21:00 +17°C° 0.2 mm 0 mps 584 mmHg 95%
22:00 +17°C° 0.5 mm 0 mps 584 mmHg 95%
23:00 +17°C° 0.5 mm 0 mps 584 mmHg 94%
Mostrar más